Flag for Japan Weather past 2 weeks in Hiroshima, Japan

Now
75 °F

Partly cloudy.


Feels Like: 75 °F
Forecast: 60 / 81 °F
Wind: 7 mph from Southwest

Location: Iwakuni Marine Corps Air Station

Current Time: Oct 3, 2014 at 2:15:26 AM

Latest Report: Oct 3, 2014 at 1:55 AM


Visibility: N/A

Pressure: 29.75 "Hg

Humidity: 82%

Dew point: 69 °F

Location of HiroshimaLocation

Historic Weather in Hiroshima — Graph

°F

Hiroshima temperature yesterday

Maximum temperature yesterday: 76 °F (at 9:55 PM)
Minimum temperature yesterday: 69 °F (at 4:55 AM)
Average temperature yesterday: 73 °F

Past Weeks' High & Low Weather Summary

 TemperatureHumidityPressure
High84 °F (Sep 28, 12:55 PM)94% (Sep 24, 10:55 PM)30.14 "Hg (Sep 24, 10:55 PM)
Low60 °F (Sep 21, 5:55 AM)32% (Sep 28, 12:55 PM)29.66 "Hg (Sep 25, 12:55 AM)
Average73 °F63%29.94 "Hg
* Reported Sep 18 12:55 AM — Oct 3 12:55 AM, Hiroshima, Weather by CustomWeather, © 2014

Note: Actual official high and low records may vary slightly from our data, if they occured in-between our weather recording intervals... More about our weather records

Advertising

Hiroshima weather history for previous 24 hours

 ConditionsComfort  
Time TempWeatherWind HumidityBarometerVisibility
12:55 AM
Oct 3
74 °FMostly cloudy.No wind91%29.75 "HgN/A
11:55 PM
Oct 2
75 °FMostly cloudy.9 mph90%29.75 "HgN/A
10:55 PM76 °FMostly cloudy.10 mph85%29.76 "HgN/A
9:55 PM76 °FSprinkles. Mostly cloudy.16 mph88%29.76 "HgN/A
8:55 PM75 °FSprinkles. Mostly cloudy.5 mph90%29.78 "HgN/A
7:55 PM75 °FSprinkles. Mostly cloudy.6 mph90%29.77 "HgN/A
6:55 PM75 °FMostly cloudy.5 mph88%29.76 "HgN/A
6:03 PM73 °FSprinkles. Mostly cloudy.3 mph94%29.77 "HgN/A
5:55 PM74 °FMostly cloudy.3 mph91%29.77 "HgN/A
4:55 PM74 °FSprinkles. Fog.9 mph91%29.77 "Hg6 mi
3:55 PM74 °FSprinkles. Fog.5 mph85%29.78 "Hg6 mi
2:55 PM74 °FSprinkles. Mostly cloudy.3 mph82%29.77 "HgN/A
1:55 PM74 °FMostly cloudy.3 mph71%29.78 "HgN/A
12:55 PM74 °FMostly cloudy.5 mph74%29.80 "HgN/A
11:55 AM74 °FMostly cloudy.No wind74%29.83 "HgN/A
10:55 AM72 °FSprinkles. Mostly cloudy.7 mph84%29.84 "HgN/A
9:55 AM72 °FMostly cloudy.12 mph78%29.86 "HgN/A
8:55 AM71 °FMostly cloudy.8 mph81%29.88 "HgN/A
7:55 AM70 °FFog.7 mph93%29.89 "Hg6 mi
6:55 AM70 °FFog.6 mph81%29.89 "Hg4 mi
5:55 AM69 °FSprinkles. Fog.8 mph84%29.88 "Hg3 mi
4:55 AM69 °FRain showers. Fog.5 mph84%29.89 "Hg3 mi
3:55 AM70 °FFog.6 mph81%29.88 "Hg5 mi
2:55 AM72 °FOvercast.3 mph73%29.89 "HgN/A
Weather by CustomWeather, © 2014

See weather overviewHow to use our weather pages